Overview Statistics Trail Chart Weather Telemetry Raw packets
 

This is the latest recevied weather packets stored in our database for station/object N6GPM. If no packets are shown the sender has not sent any weather packets the latest 10 day(s).

<< 106 107 108 109 110 111 112 >>
Time Temp. Humidity Pressure Rain* Wind** Luminosity Snow
1787875828 35° C 30% 1015.2 hPa 0 mm - 231 W/m² -
1787875527 35° C 31% 1015.6 hPa 0 mm - 304 W/m² -
1787875221 35° C 31% 1015.5 hPa 0 mm - 225 W/m² -
1787874920 34.44° C 31% 1015.7 hPa 0 mm - 252 W/m² -
1787874615 34.44° C 31% 1015.4 hPa 0 mm - 275 W/m² -
1787874309 34.44° C 32% 1015.3 hPa 0 mm - 304 W/m² -
1787874008 34.44° C 33% 1015.4 hPa 0 mm - 274 W/m² -
1787873702 34.44° C 33% 1015.5 hPa 0 mm - 235 W/m² -
1787873397 34.44° C 33% 1015.4 hPa 0 mm - 238 W/m² -
1787873097 33.89° C 34% 1015.3 hPa 0 mm - 253 W/m² -
1787872791 33.89° C 34% 1015.6 hPa 0 mm - 280 W/m² -
1787872487 34.44° C 33% 1015.5 hPa 0 mm - 309 W/m² -
1787872182 34.44° C 31% 1015.5 hPa 0 mm - 324 W/m² -
1787871881 34.44° C 29% 1015.6 hPa 0 mm - 373 W/m² -
1787871576 34.44° C 27% 1015.6 hPa 0 mm - 387 W/m² -
1787871272 33.89° C 29% 1015.8 hPa 0 mm - 351 W/m² -
1787870969 34.44° C 33% 1015.9 hPa 0 mm - 405 W/m² -
1787870667 33.89° C 32% 1016 hPa 0 mm - 408 W/m² -
1787870366 33.89° C 35% 1015.7 hPa 0 mm - 410 W/m² -
1787870062 34.44° C 36% 1016.3 hPa 0 mm - 339 W/m² -
1787869761 34.44° C 37% 1016.1 hPa 0 mm - 334 W/m² -
1787869456 34.44° C 34% 1016.2 hPa 0 mm - 343 W/m² -
1787869150 34.44° C 37% 1016.1 hPa 0 mm - 340 W/m² -
1787868850 34.44° C 39% 1016.1 hPa 0 mm - 368 W/m² -
1787868548 34.44° C 36% 1016.2 hPa 0 mm - 404 W/m² -

* Rain latest hour (hover to see other rain measurements)
** Current wind speed in m/s (hover to see current wind gust speed)